Weather History for Rome, GA

Change the Weather History Date:

Saturday, February 16, 2013

  Actual Average Record
Temperature  
Mean Temperature 36 °F 44 °F  
Max Temperature 43 °F 56 °F 78 °F (2001)
Min Temperature 28 °F 33 °F 21 °F (2007)
Degree Days  
Heating Degree Days 28 21  
Month to date heating degree days 352  
Since 1 July heating degree days 2394  
Moisture  
Dew Point 21 °F    
Average Humidity 52    
Maximum Humidity 70    
Minimum Humidity 28    
Precipitation  
Precipitation 0.00 in 0.18 in 0.92 in (2003)
Month to date precipitation 2.60  
Year to date precipitation 7.42  
Snow  
Snow 0.00 in - - ()
Month to date snowfall  
Since 1 July snowfall  
Snow Depth -    
Sea Level Pressure  
Sea Level Pressure 30.07 in    
Wind  
Wind Speed 8 mph (NNW)    
Max Wind Speed 17 mph    
Max Gust Speed 25 mph    
Visibility 10 miles    
Events      
T = Trace of Precipitation, MM = Missing Value Source: NWS Daily Summary

Daily Weather History Graph

Daily Weather History Graph

Search for Another Location

Airport:

Trip Planner

Search our weather history database for the weather conditions in past years. The results will help you decide how hot, cold, wet, or windy it might be!

Date:

Astronomy

Feb. 16, 2013 Rise Set
Actual Time 7:24 AM EST 6:25 PM EST
Civil Twilight 6:58 AM EST 6:51 PM EST
Nautical Twilight 6:29 AM EST 7:20 PM EST
Astronomical Twilight 6:00 AM EST 7:49 PM EST
Moon 10:55 AM EST (2/16) 12:06 AM EST (2/16)
Length of Visible Light 11h 52m
Length of Day
11h 00m
Waxing Crescent, 39% of the Moon is Illuminated
Feb 16
Waxing Crescent
Feb 17
First Quarter
Feb 25
Full
Mar 4
Last Quarter
Mar 11
New

Hourly Weather History & Observations

Time (EST) Temp. Windchill Dew Point Humidity Pressure Visibility Wind Dir Wind Speed Gust Speed Precip Events Conditions
12:53 AM 42.1 °F 37.7 °F 28.9 °F 60% 30.05 in 10.0 mi North 6.9 mph - N/A   Overcast
1:53 AM 39.9 °F 35.1 °F 28.0 °F 63% 30.04 in 10.0 mi NNW 6.9 mph - N/A   Scattered Clouds
2:53 AM 39.0 °F 34.8 °F 28.0 °F 65% 30.01 in 10.0 mi NNW 5.8 mph - N/A   Mostly Cloudy
3:53 AM 37.9 °F 31.5 °F 28.0 °F 68% 30.01 in 10.0 mi NNW 9.2 mph - N/A   Overcast
4:53 AM 37.0 °F 30.4 °F 28.0 °F 70% 30.01 in 10.0 mi NNW 9.2 mph - N/A   Mostly Cloudy
5:53 AM 37.0 °F 32.4 °F 27.0 °F 67% 30.02 in 10.0 mi North 5.8 mph - N/A   Mostly Cloudy
6:53 AM 36.0 °F 32.1 °F 27.0 °F 70% 30.03 in 10.0 mi North 4.6 mph - N/A   Clear
7:53 AM 35.1 °F 30.1 °F 26.1 °F 70% 30.05 in 10.0 mi NNW 5.8 mph - N/A   Mostly Cloudy
8:53 AM 37.0 °F 29.3 °F 25.0 °F 62% 30.06 in 10.0 mi NW 11.5 mph - N/A   Clear
9:53 AM 39.0 °F 33.4 °F 21.0 °F 49% 30.06 in 10.0 mi WNW 8.1 mph - N/A   Clear
10:53 AM 41.0 °F 36.4 °F 19.0 °F 41% 30.05 in 10.0 mi NNE 6.9 mph - N/A   Partly Cloudy
11:53 AM 39.9 °F 31.8 °F 12.0 °F 32% 30.06 in 10.0 mi WNW 15.0 mph 23.0 mph N/A   Mostly Cloudy
12:53 PM 41.0 °F 33.5 °F 12.9 °F 32% 30.06 in 10.0 mi NW 13.8 mph 23.0 mph N/A   Mostly Cloudy
1:53 PM 42.1 °F 33.9 °F 12.9 °F 31% 30.05 in 10.0 mi NW 17.3 mph 24.2 mph N/A   Mostly Cloudy
2:53 PM 39.9 °F 31.4 °F 15.1 °F 36% 30.05 in 10.0 mi NW 16.1 mph 24.2 mph N/A   Mostly Cloudy
3:53 PM 39.0 °F 31.8 °F 12.9 °F 34% 30.06 in 10.0 mi NW 11.5 mph 25.3 mph N/A   Overcast
4:53 PM 39.9 °F 32.1 °F 12.0 °F 32% 30.08 in 10.0 mi North 13.8 mph 19.6 mph N/A   Mostly Cloudy
5:53 PM 37.9 °F 30.5 °F 10.9 °F 33% 30.09 in 10.0 mi NW 11.5 mph 21.9 mph N/A   Mostly Cloudy
6:53 PM 35.1 °F 27.9 °F 14.0 °F 42% 30.12 in 10.0 mi NNW 9.2 mph - N/A   Mostly Cloudy
7:53 PM 32.0 °F 26.4 °F 19.0 °F 59% 30.14 in 10.0 mi NW 5.8 mph - N/A   Partly Cloudy
8:53 PM 30.9 °F 25.2 °F 19.9 °F 64% 30.17 in 10.0 mi NW 5.8 mph - N/A   Partly Cloudy
9:53 PM 30.0 °F 26.5 °F 19.0 °F 64% 30.18 in 10.0 mi WNW 3.5 mph - N/A   Clear
10:53 PM 30.0 °F 24.1 °F 19.0 °F 64% 30.18 in 10.0 mi WNW 5.8 mph - N/A   Clear
11:53 PM 28.9 °F 23.9 °F 18.0 °F 64% 30.19 in 10.0 mi WNW 4.6 mph - N/A   Clear